PHBLT ENBR-ENZV

Flight info

Callsign PHBLT
Flight time 0h 37m
Altitude
Route
Aircraft AEST

Departure

Time 2026-05-08 09:26
Airport Bergen Airport, Flesland (ENBR)

Arrival

Time 2026-05-08 10:04
Airport Stavanger Airport, Sola (ENZV)
Time Latitude Longitude Altitude Speed Heading
2026-05-08 09:14 60.29568 5.22607 147 ft 0 kts 182°
2026-05-08 09:22 60.29560 5.22556 147 ft 8 kts 257°
2026-05-08 09:23 60.29576 5.22423 144 ft 12 kts 353°
2026-05-08 09:23 60.29680 5.22391 142 ft 21 kts 352°
2026-05-08 09:23 60.29745 5.22244 141 ft 19 kts 260°
2026-05-08 09:23 60.29731 5.22068 143 ft 10 kts 262°
2026-05-08 09:24 60.29720 5.21935 143 ft 10 kts 261°
2026-05-08 09:24 60.29715 5.21871 143 ft 0 kts 219°
2026-05-08 09:24 60.29713 5.21867 143 ft 4 kts 233°
2026-05-08 09:25 60.29702 5.21705 145 ft 8 kts 231°
2026-05-08 09:25 60.29687 5.21701 145 ft 0 kts 169°
2026-05-08 09:25 60.29640 5.21718 144 ft 23 kts 172°
2026-05-08 09:26 60.29329 5.21821 150 ft 70 kts 170°
2026-05-08 09:26 60.28770 5.21994 329 ft 86 kts 171°
2026-05-08 09:26 60.28112 5.22192 661 ft 106 kts 171°
2026-05-08 09:26 60.27300 5.22097 913 ft 130 kts 195°
2026-05-08 09:27 60.26369 5.21421 1029 ft 152 kts 197°
2026-05-08 09:27 60.25312 5.20636 1061 ft 169 kts 197°
2026-05-08 09:27 60.24198 5.19806 1161 ft 174 kts 198°
2026-05-08 09:27 60.23033 5.18939 1199 ft 179 kts 198°
2026-05-08 09:28 60.21873 5.18045 1262 ft 180 kts 198°
2026-05-08 09:28 60.20694 5.17109 1241 ft 184 kts 199°
2026-05-08 09:28 60.19498 5.16101 1132 ft 188 kts 200°
2026-05-08 09:28 60.18307 5.15169 1332 ft 179 kts 196°
2026-05-08 09:29 60.17141 5.14387 1490 ft 177 kts 196°
2026-05-08 09:29 60.15966 5.13527 1440 ft 183 kts 198°
2026-05-08 09:29 60.14770 5.12576 1423 ft 184 kts 199°
2026-05-08 09:29 60.13605 5.11563 1544 ft 181 kts 201°
2026-05-08 09:30 60.12445 5.10567 1599 ft 183 kts 196°
2026-05-08 09:30 60.11211 5.09913 1601 ft 184 kts 187°
2026-05-08 09:30 60.09948 5.09735 1628 ft 181 kts 177°
2026-05-08 09:30 60.08708 5.10031 1694 ft 179 kts 168°
2026-05-08 09:31 60.07495 5.10636 1693 ft 179 kts 166°
2026-05-08 09:31 60.06299 5.11257 1699 ft 175 kts 166°
2026-05-08 09:31 60.05109 5.11820 1670 ft 177 kts 168°
2026-05-08 09:31 60.03891 5.12314 1583 ft 180 kts 169°
2026-05-08 09:32 60.02662 5.12714 1550 ft 179 kts 172°
2026-05-08 09:32 60.01453 5.13005 1541 ft 176 kts 174°
2026-05-08 09:32 60.00236 5.13202 1500 ft 176 kts 175°
2026-05-08 09:32 59.99009 5.13371 1448 ft 177 kts 173°
2026-05-08 09:33 59.97799 5.13697 1409 ft 174 kts 169°
2026-05-08 09:33 59.96617 5.14164 1420 ft 173 kts 168°
2026-05-08 09:33 59.95446 5.14793 1384 ft 175 kts 162°
2026-05-08 09:33 59.94321 5.15759 1316 ft 177 kts 154°
2026-05-08 09:34 59.93252 5.16974 1287 ft 176 kts 153°
2026-05-08 09:34 59.92196 5.18198 1290 ft 174 kts 153°
2026-05-08 09:34 59.91146 5.19388 1220 ft 174 kts 154°
2026-05-08 09:34 59.90072 5.20524 1111 ft 175 kts 156°
2026-05-08 09:35 59.88967 5.21533 1047 ft 175 kts 160°
2026-05-08 09:35 59.87832 5.22400 999 ft 174 kts 161°
2026-05-08 09:35 59.86747 5.23440 847 ft 182 kts 146°
2026-05-08 09:35 59.85774 5.24951 883 ft 170 kts 144°
2026-05-08 09:36 59.84886 5.26318 851 ft 154 kts 146°
2026-05-08 09:36 59.84051 5.27445 714 ft 141 kts 151°
2026-05-08 09:36 59.83242 5.28394 570 ft 123 kts 147°
2026-05-08 09:36 59.82620 5.29409 429 ft 113 kts 143°
2026-05-08 09:37 59.81998 5.30294 379 ft 93 kts 151°
2026-05-08 09:37 59.81476 5.30921 281 ft 87 kts 149°
2026-05-08 09:37 59.80958 5.31666 237 ft 97 kts 146°
2026-05-08 09:37 59.80400 5.32428 278 ft 102 kts 149°
2026-05-08 09:38 59.79822 5.33217 198 ft 98 kts 146°
2026-05-08 09:38 59.79320 5.33910 161 ft 72 kts 147°
2026-05-08 09:38 59.79041 5.34292 157 ft 37 kts 146°
2026-05-08 09:38 59.78865 5.34543 155 ft 26 kts 145°
2026-05-08 09:39 59.78751 5.34702 158 ft 17 kts 143°
2026-05-08 09:39 59.78668 5.34820 160 ft 12 kts 59°
2026-05-08 09:39 59.78734 5.34728 158 ft 13 kts 329°
2026-05-08 09:39 59.78828 5.34599 157 ft 22 kts 325°
2026-05-08 09:40 59.78986 5.34379 156 ft 32 kts 325°
2026-05-08 09:40 59.79179 5.34112 162 ft 36 kts 323°
2026-05-08 09:40 59.79397 5.33807 160 ft 38 kts 324°
2026-05-08 09:40 59.79430 5.33752 158 ft 0 kts 144°
2026-05-08 09:42 59.79285 5.33957 162 ft 60 kts 145°
2026-05-08 09:42 59.78834 5.34596 270 ft 89 kts 145°
2026-05-08 09:42 59.78491 5.35105 468 ft 96 kts 144°
2026-05-08 09:42 59.77983 5.35924 967 ft 98 kts 142°
2026-05-08 09:43 59.77433 5.36854 1347 ft 109 kts 144°
2026-05-08 09:43 59.76784 5.37617 1909 ft 104 kts 162°
2026-05-08 09:43 59.76057 5.38013 2157 ft 123 kts 167°
2026-05-08 09:43 59.75199 5.38423 2322 ft 133 kts 166°
2026-05-08 09:44 59.74256 5.38910 2392 ft 146 kts 165°
2026-05-08 09:44 59.73245 5.39487 2466 ft 151 kts 163°
2026-05-08 09:44 59.72234 5.40106 2593 ft 159 kts 163°
2026-05-08 09:44 59.71150 5.40776 2590 ft 161 kts 163°
2026-05-08 09:45 59.70115 5.41398 2705 ft 161 kts 164°
2026-05-08 09:45 59.68964 5.42034 2476 ft 178 kts 166°
2026-05-08 09:45 59.67745 5.42611 2401 ft 180 kts 168°
2026-05-08 09:45 59.66533 5.43068 2487 ft 174 kts 171°
2026-05-08 09:46 59.65338 5.43368 2506 ft 173 kts 174°
2026-05-08 09:46 59.64123 5.43503 2449 ft 179 kts 178°
2026-05-08 09:46 59.62869 5.43484 2460 ft 179 kts 182°
2026-05-08 09:46 59.61624 5.43343 2505 ft 179 kts 181°
2026-05-08 09:47 59.60393 5.43250 2519 ft 175 kts 180°
2026-05-08 09:47 59.59178 5.43149 2543 ft 175 kts 180°
2026-05-08 09:47 59.57958 5.43064 2554 ft 176 kts 180°
2026-05-08 09:47 59.56738 5.42998 2560 ft 174 kts 180°
2026-05-08 09:48 59.55533 5.42923 2569 ft 174 kts 181°
2026-05-08 09:48 59.54329 5.42831 2568 ft 173 kts 180°
2026-05-08 09:48 59.53127 5.42737 2573 ft 173 kts 180°
2026-05-08 09:48 59.51942 5.42645 2583 ft 172 kts 180°
2026-05-08 09:49 59.50735 5.42568 2605 ft 175 kts 180°
2026-05-08 09:49 59.49501 5.42498 2620 ft 179 kts 180°
2026-05-08 09:49 59.48265 5.42423 2633 ft 178 kts 180°
2026-05-08 09:49 59.47029 5.42362 2633 ft 177 kts 180°
2026-05-08 09:50 59.45800 5.42302 2632 ft 177 kts 180°
2026-05-08 09:50 59.44567 5.42241 2648 ft 177 kts 180°
2026-05-08 09:50 59.43331 5.42178 2642 ft 178 kts 180°
2026-05-08 09:50 59.42096 5.42122 2667 ft 178 kts 180°
2026-05-08 09:51 59.40858 5.42055 2673 ft 178 kts 180°
2026-05-08 09:51 59.39623 5.42001 2681 ft 178 kts 180°
2026-05-08 09:51 59.38388 5.41942 2681 ft 178 kts 180°
2026-05-08 09:51 59.37153 5.41868 2675 ft 177 kts 181°
2026-05-08 09:52 59.35912 5.41789 2676 ft 178 kts 180°
2026-05-08 09:52 59.34676 5.41716 2684 ft 177 kts 180°
2026-05-08 09:52 59.33460 5.41662 2702 ft 176 kts 180°
2026-05-08 09:52 59.32236 5.41606 2714 ft 176 kts 180°
2026-05-08 09:53 59.31008 5.41542 2710 ft 177 kts 180°
2026-05-08 09:53 59.29772 5.41536 2720 ft 178 kts 173°
2026-05-08 09:53 59.28554 5.41899 2740 ft 176 kts 170°
2026-05-08 09:53 59.27371 5.42316 2716 ft 169 kts 169°
2026-05-08 09:54 59.26234 5.42717 2671 ft 165 kts 169°
2026-05-08 09:54 59.25101 5.43113 2561 ft 166 kts 169°
2026-05-08 09:54 59.23971 5.43605 2460 ft 167 kts 167°
2026-05-08 09:54 59.22838 5.44144 2366 ft 168 kts 166°
2026-05-08 09:55 59.21713 5.44753 2270 ft 168 kts 164°
2026-05-08 09:55 59.20600 5.45422 2182 ft 167 kts 163°
2026-05-08 09:55 59.19493 5.46102 2105 ft 167 kts 163°
2026-05-08 09:55 59.18407 5.46839 2035 ft 167 kts 160°
2026-05-08 09:56 59.17316 5.47664 1933 ft 169 kts 160°
2026-05-08 09:56 59.16221 5.48490 1837 ft 168 kts 160°
2026-05-08 09:56 59.15127 5.49313 1751 ft 168 kts 160°
2026-05-08 09:56 59.14035 5.50140 1670 ft 169 kts 160°
2026-05-08 09:57 59.11834 5.51790 1490 ft 168 kts 160°
2026-05-08 09:57 59.10743 5.52620 1396 ft 169 kts 160°
2026-05-08 09:57 59.09652 5.53470 1306 ft 169 kts 160°
2026-05-08 09:58 59.08565 5.54313 1239 ft 168 kts 160°
2026-05-08 09:58 59.07467 5.55160 1220 ft 169 kts 160°
2026-05-08 09:58 59.06420 5.56194 1201 ft 170 kts 147°
2026-05-08 09:58 59.05531 5.57734 1220 ft 170 kts 137°
2026-05-08 09:59 59.04756 5.59441 1249 ft 172 kts 134°
2026-05-08 09:59 59.04007 5.61281 1198 ft 175 kts 131°
2026-05-08 09:59 59.03286 5.63196 1252 ft 172 kts 136°
2026-05-08 09:59 59.02209 5.64109 1166 ft 174 kts 184°
2026-05-08 10:00 59.01105 5.63586 1298 ft 152 kts 194°
2026-05-08 10:00 59.00092 5.63385 1208 ft 147 kts 175°
2026-05-08 10:00 58.99126 5.63428 1236 ft 133 kts 178°
2026-05-08 10:00 58.98183 5.63395 1122 ft 136 kts 178°
2026-05-08 10:01 58.97313 5.63479 1020 ft 113 kts 173°
2026-05-08 10:01 58.96565 5.63544 860 ft 105 kts 179°
2026-05-08 10:01 58.95801 5.63587 767 ft 106 kts 176°
2026-05-08 10:01 58.95076 5.63634 657 ft 103 kts 178°
2026-05-08 10:02 58.94368 5.63671 580 ft 99 kts 180°
2026-05-08 10:02 58.93693 5.63694 527 ft 96 kts 180°
2026-05-08 10:02 58.93026 5.63691 463 ft 96 kts 181°
2026-05-08 10:02 58.92362 5.63683 385 ft 95 kts 181°
2026-05-08 10:03 58.91729 5.63663 370 ft 96 kts 179°
2026-05-08 10:03 58.91032 5.63704 299 ft 99 kts 177°
2026-05-08 10:03 58.90352 5.63715 223 ft 94 kts 179°
2026-05-08 10:03 58.89673 5.63743 111 ft 93 kts 180°
2026-05-08 10:04 58.89028 5.63746 22 ft 89 kts 179°
2026-05-08 10:04 58.88534 5.63757 24 ft 57 kts 179°
2026-05-08 10:04 58.88173 5.63767 27 ft 48 kts 179°
2026-05-08 10:04 58.87887 5.63778 28 ft 37 kts 174°
2026-05-08 10:05 58.87694 5.63748 28 ft 17 kts 242°
2026-05-08 10:05 58.87726 5.63474 27 ft 28 kts 286°
2026-05-08 10:05 58.87850 5.63296 26 ft 24 kts 20°
2026-05-08 10:05 58.87999 5.63414 26 ft 23 kts 24°
2026-05-08 10:06 58.88186 5.63431 25 ft 32 kts 359°
2026-05-08 10:06 58.88401 5.63428 26 ft 30 kts 357°
2026-05-08 10:06 58.88604 5.63417 26 ft 29 kts 358°
2026-05-08 10:06 58.88810 5.63416 26 ft 30 kts
2026-05-08 10:07 58.88999 5.63402 22 ft 25 kts 335°
2026-05-08 10:07 58.89151 5.63341 21 ft 21 kts 340°
2026-05-08 10:07 58.89245 5.63299 20 ft 2 kts 271°
2026-05-08 10:07 58.89244 5.63280 20 ft 0 kts 267°